Lexington Weather

Lexington, Massachusetts, USA

72°F
9/22/2021 2:01pm 
  • Lexington Conditions: Light rain, Mist, Overcast
  • Temperature: 71.8°F / 22.1°CColder 3.0°F than last hour.
  • Dew Point: 68.7°FIncreased 0.5°Fsince last hour.
  • Relative Humidity: 90%Increased 10.0% since last hour.
  • Wind: Wind from NW NW 3 mph, 10-min avg: 4 mph, gust: 11 mph
  • Barometer: 30.09 inFalling 0.02  inHg/hr Falling Slowly
  • Visibility: 2 miles
  • Rain Today: 0.00 in
  •   

Regional Weather Roundup
for Boston / Norton, MA

        
000
ASUS41 KBOX 211204
RWRBOX

REGIONAL WEATHER ROUNDUP
NATIONAL WEATHER SERVICE BOSTON/NORTON MA
800 AM EDT TUE SEP 21 2021

NOTE:  "FAIR" INDICATES FEW OR NO CLOUDS BELOW 12,000 FEET WITH NO 
SIGNIFICANT WEATHER AND/OR OBSTRUCTIONS TO VISIBILITY.

MAZALL-211300-
EASTERN MASSACHUSETTS
  
CITY           SKY/WX    TMP DP  RH WIND       PRES   REMARKS
BOSTON         MOSUNNY   63  54  72 N3        30.42R                  
6HR MIN TEMP:  57; 6HR MAX TEMP:  63;                                

BEVERLY        MOSUNNY   57  55  93 N3        30.41S                  
LAWRENCE       MOSUNNY   54  54 100 CALM      30.44S                  
BEDFORD        MOSUNNY   51  50  96 CALM      30.41R                  
BLUE HILL      NOT AVBL                                               
NORWOOD        MOSUNNY   54  51  90 CALM      30.41S                  
MARSHFIELD     CLOUDY    55  54  94 CALM      30.40F                  
PLYMOUTH       PTSUNNY   61  58  90 CALM      30.41S                  
TAUNTON        CLOUDY    50  49  96 CALM      30.40S                  
NEW BEDFORD    MOSUNNY   56  55  97 CALM      30.39S                  
$$

MAZALL-211300-
CAPE COD AND THE ISLANDS
  
CITY           SKY/WX    TMP DP  RH WIND       PRES   REMARKS
FALMOUTH       MOSUNNY   61  61 100 NE5       30.40S                  
HYANNIS        MOSUNNY   64  62  93 E3        30.39S                  
CHATHAM        SUNNY     65  61  87 E6        30.41S                  
PROVINCETOWN   SUNNY     63  62  97 SE5       30.41S                  
NANTUCKET      SUNNY     67  62  84 E8        30.39S                  
MARTHAS VNYRD  SUNNY     63  60  90 E5        30.40R                  
$$
 
MAZALL-211300-
CENTRAL AND WESTERN MASSACHUSETTS
  
CITY           SKY/WX    TMP DP  RH WIND       PRES   REMARKS
WORCESTER      SUNNY     56  52  86 NE3       30.42R                  
6HR MIN TEMP:  52; 6HR MAX TEMP:  56;                                

FITCHBURG      SUNNY     53  49  86 CALM      30.44R                  
ORANGE         SUNNY     51  50  96 CALM      30.42S                  
SPRINGFIELD    PTSUNNY   53  53 100 CALM      30.40R                  
WESTFIELD      FOG       54  54 100 CALM      30.40S VSB 1/4          
NORTH ADAMS    SUNNY     54  51  90 CALM      30.39S                  
PITTSFIELD     SUNNY     55  52  89 N3        30.38S                  
$$
 
RIZALL-211300-
RHODE ISLAND
  
CITY           SKY/WX    TMP DP  RH WIND       PRES   REMARKS
PROVIDENCE     MOSUNNY   57  53  86 NW3       30.41R                  
6HR MIN TEMP:  52; 6HR MAX TEMP:  57;                                

NEWPORT        CLOUDY    59  58  96 CALM      30.39S                  
SMITHFIELD     SUNNY     55  53  93 NE6       30.41S                  
WESTERLY       CLOUDY    51  51 100 N5        30.39R                  
$$
 
CTZALL-211300-
CONNECTICUT
  
CITY           SKY/WX    TMP DP  RH WIND       PRES   REMARKS
BRADLEY INTL   PTSUNNY   54  53  97 N3        30.40R                  
6HR MIN TEMP:  49; 6HR MAX TEMP:  54;                                

HARTFORD       SUNNY     58  53  84 N3        30.40R                  
BRIDGEPORT     SUNNY     61  55  81 NE8       30.37R                  
DANBURY        SUNNY     58  52  80 CALM      30.39R                  
GROTON         PTSUNNY   57  53  86 N6        30.38S                  
NEW HAVEN      SUNNY     60  56  86 NE5       30.38S                  
CHESTER        FAIR      55  55 100 CALM      30.39S                  
MERIDEN        SUNNY     56  52  86 NW5       30.39S                  
WILLIMANTIC    SUNNY     51  49  92 CALM      30.41S                  
OXFORD         SUNNY     56  53  90 NE6       30.40R                  
$$

MEZ002-015-021-024-NHZ003-005-008-011-012-014-VTZ005-008-211300-
NORTHERN NEW ENGLAND
  
CITY           SKY/WX    TMP DP  RH WIND       PRES   REMARKS
PORTLAND ME    MOSUNNY   55  52  89 CALM      30.44R                  
6HR MIN TEMP:  47; 6HR MAX TEMP:  55;                                

BANGOR ME      FOG       53  53 100 S6        30.44S VSB 1/4          
CONCORD NH     FOG       50  49  96 CALM      30.43R VSB<1/4          
MANCHESTER NH  FOG       53  52  96 NW3       30.41S VSB 1/4          
NASHUA NH      FOG       49  49 100 NW6       30.44R VSB 1/4          
PORTSMOUTH NH  MOSUNNY   54  53  96 CALM      30.44R                  
JAFFREY NH     SUNNY     49  49 100 CALM      30.42S                  
KEENE NH       FOG       49  49 100 CALM      30.42S VSB 1/4          
BURLINGTON VT  MOSUNNY   63  54  72 S14G23    30.33S                  
MT. WASHINGTON NOT AVBL                                               
$$

NYZ052-076-211300-
EASTERN NEW YORK
  
CITY           SKY/WX    TMP DP  RH WIND       PRES   REMARKS
ALBANY         MOSUNNY   57  55  93 CALM      30.37R                  
6HR MIN TEMP:  51; 6HR MAX TEMP:  59;                                

NEW YORK CITY  PTSUNNY   66  55  67 E9        30.35R                  
6HR MIN TEMP:  64; 6HR MAX TEMP:  67;                                

$$
 
ANZALL-211300-
MARINE OBSERVATIONS
  
STATION/POSITION TIME  TEMP    WIND        PRES    VSBY  WAVE
                       AIR SEA DIR/SP/G                  HT/PER
                 (UTC) (F)     (DEG/KT/KT) (MB)    (MI)  (FT/S)
BOSTON BUOY      1140      64  130/  8/ 12 1030.1S
BUZZARDS BAY     1100          100/  8/  9 1030.1R
NANTUCKET SOUND  1140   67 71  110/ 12/ 16 1029.2R
MASS BAY-STELLWA 1104   63     170/  8/ 10 1029.8R  1 7/8  3/ 8
ISLE OF SHOALS   1100   59     330/  5/  6 1029.6R
S OF BLOCK IS    1126      69                N/A           3/ 9
$$

......................KEY.........................
  SKY/WX - SKY CONDITION/PRESENT WEATHER
  TMP    - TEMPERATURE IN FAHRENHEIT
  DWPT   - DEWPOINT IN FAHRENHEIT
  RH     - RELATIVE HUMIDITY IN PERCENT
  WIND   - DIRECTION AND SPEED IN MPH
  PRES   - MEAN SEA LEVEL PRESSURE IN INCHES OF HG
  WCI    - WIND CHILL INDEX
  VSB    - VISIBILITY IN MILES
  HX     - HEAT INDEX
  TC     - TEMPERATURE IN CELSIUS
  VRB    - VARIABLE WIND DIRECTION
  N/A    - NOT AVAILABLE
  
      

Other recent Regional Weather Roundups

Wed Sep 22, 1:04pm

Wed Sep 22, 12:05pm

Wed Sep 22, 11:04am

Wed Sep 22, 10:04am

Wed Sep 22, 9:04am

Wed Sep 22, 8:04am

Wed Sep 22, 7:04am

Wed Sep 22, 6:04am

Wed Sep 22, 5:04am

Wed Sep 22, 4:04am

Wed Sep 22, 3:04am

Wed Sep 22, 2:04am

Wed Sep 22, 1:04am

Wed Sep 22, 12:04am

Tue Sep 21, 11:04pm

Tue Sep 21, 10:04pm

Tue Sep 21, 9:04pm

Tue Sep 21, 8:04pm

Tue Sep 21, 7:04pm

Tue Sep 21, 6:04pm

Tue Sep 21, 5:04pm

Tue Sep 21, 4:04pm

Tue Sep 21, 3:04pm

Tue Sep 21, 2:04pm

Tue Sep 21, 1:04pm

Tue Sep 21, 12:04pm

Tue Sep 21, 11:04am

Tue Sep 21, 10:04am

Tue Sep 21, 9:04am

Tue Sep 21, 7:04am

Tue Sep 21, 6:04am

Tue Sep 21, 5:04am

Tue Sep 21, 4:04am

Tue Sep 21, 3:04am

Tue Sep 21, 2:04am

Tue Sep 21, 1:04am

Tue Sep 21, 12:04am

Mon Sep 20, 11:04pm

Mon Sep 20, 10:04pm

Mon Sep 20, 9:04pm

Mon Sep 20, 8:04pm

Mon Sep 20, 7:04pm

Mon Sep 20, 6:04pm

Mon Sep 20, 5:04pm

Mon Sep 20, 4:04pm

Mon Sep 20, 3:04pm

Mon Sep 20, 2:04pm

Mon Sep 20, 1:04pm

Mon Sep 20, 12:04pm

Mon Sep 20, 11:04am

Mon Sep 20, 10:04am

Mon Sep 20, 9:04am

Mon Sep 20, 7:04am

Mon Sep 20, 6:04am

Mon Sep 20, 5:04am

Mon Sep 20, 4:04am

Mon Sep 20, 3:04am

Mon Sep 20, 2:04am

Mon Sep 20, 1:04am

Mon Sep 20, 12:04am

Sun Sep 19, 11:04pm

Sun Sep 19, 10:04pm

Sun Sep 19, 9:04pm

Sun Sep 19, 8:04pm

Sun Sep 19, 7:04pm

Sun Sep 19, 6:04pm

Sun Sep 19, 5:04pm

Sun Sep 19, 4:04pm

Sun Sep 19, 3:04pm

Sun Sep 19, 2:05pm

Sun Sep 19, 1:04pm

Sun Sep 19, 12:04pm

Sun Sep 19, 11:04am

Sun Sep 19, 10:05am

Sun Sep 19, 9:04am

Sun Sep 19, 8:04am

Sun Sep 19, 7:04am

Sun Sep 19, 6:04am

Sun Sep 19, 5:04am

Sun Sep 19, 4:04am

Sun Sep 19, 3:04am

Sun Sep 19, 2:04am

Sun Sep 19, 1:04am

Sun Sep 19, 12:04am

Sat Sep 18, 11:05pm

Sat Sep 18, 10:04pm

Sat Sep 18, 9:04pm

Sat Sep 18, 8:04pm

Sat Sep 18, 7:04pm

Sat Sep 18, 6:04pm

Sat Sep 18, 5:04pm

Sat Sep 18, 4:04pm

Sat Sep 18, 3:04pm

Sat Sep 18, 2:04pm

Sat Sep 18, 1:04pm

Sat Sep 18, 12:04pm

Sat Sep 18, 11:04am

Sat Sep 18, 10:04am

Sat Sep 18, 9:04am

Sat Sep 18, 8:04am

Sat Sep 18, 7:04am

Sat Sep 18, 6:04am

Sat Sep 18, 5:04am

Sat Sep 18, 4:04am

Sat Sep 18, 3:04am

Sat Sep 18, 2:04am

Sat Sep 18, 1:04am

Sat Sep 18, 12:04am

Fri Sep 17, 11:04pm

Fri Sep 17, 10:04pm

Fri Sep 17, 9:04pm

Fri Sep 17, 8:04pm

Fri Sep 17, 7:04pm

Fri Sep 17, 6:04pm

Fri Sep 17, 5:04pm

Fri Sep 17, 4:04pm

Fri Sep 17, 3:04pm

Fri Sep 17, 2:04pm

Fri Sep 17, 1:04pm

Fri Sep 17, 12:05pm

Fri Sep 17, 11:04am

Fri Sep 17, 10:04am

Fri Sep 17, 9:04am

Fri Sep 17, 8:04am

Fri Sep 17, 7:04am

Fri Sep 17, 6:04am

Fri Sep 17, 5:04am

Fri Sep 17, 4:04am

Fri Sep 17, 3:04am

Fri Sep 17, 2:04am

Fri Sep 17, 1:04am

Fri Sep 17, 12:04am

Thu Sep 16, 11:04pm

Thu Sep 16, 10:04pm

Thu Sep 16, 9:04pm

Thu Sep 16, 8:04pm

Thu Sep 16, 7:04pm

Thu Sep 16, 6:04pm

Thu Sep 16, 5:04pm

Thu Sep 16, 4:04pm

Thu Sep 16, 3:04pm

Thu Sep 16, 2:04pm

Thu Sep 16, 1:05pm

Thu Sep 16, 12:04pm

Thu Sep 16, 11:05am

Thu Sep 16, 10:05am

Thu Sep 16, 9:04am

Thu Sep 16, 8:04am

Thu Sep 16, 7:04am

Thu Sep 16, 6:04am

Thu Sep 16, 5:04am

Thu Sep 16, 4:04am

Thu Sep 16, 3:04am

Thu Sep 16, 2:04am

Thu Sep 16, 1:04am

Thu Sep 16, 12:04am

Wed Sep 15, 11:04pm

Wed Sep 15, 10:04pm

Wed Sep 15, 9:04pm

Wed Sep 15, 8:04pm

Wed Sep 15, 7:04pm

Wed Sep 15, 6:04pm

Wed Sep 15, 5:05pm

Wed Sep 15, 4:04pm

Wed Sep 15, 3:04pm

Wed Sep 15, 2:04pm

Meta data:

ID: 43fcd002-6686-4cd8-a843-62c192d459d1
Link: https://api.weather.gov/products/43fcd002-6686-4cd8-a843-62c192d459d1